User: anonymous   Login
Location: Ellingshausen
(50.5460°N, 10.4723°E)
Time: 16:43:17
(UTC+00:00)
Language:

Cosmos 1140 Rocket - Orbit

View from above orbital plane
View from above orbital plane
View from above satellite
View from above satellite

Ground track
Ground track

The orbit is defined by the following mean orbital elements,

1 11574U          26064.23714203 +.00000000 +00000-0 +11914-3 0 00000
2 11574  74.0672  99.2870 0017137 272.3978  87.5216 14.42347335    03
Epoch (UTC): 05 March 2026 05:41:29
Eccentricity: 0.0017137
inclination: 74.0672°
perigee height: 739 km
apogee height: 763 km
right ascension of ascending node: 99.2870°
argument of perigee: 272.3978°
revolutions per day: 14.42347335
mean anomaly at epoch: 87.5216°

The dashed part of the orbit path shows where the satellite is in the earth's shadow,  

DLR